Regional Weather Roundup
Issued by NWS San Angelo, TX

Home | Current Version | Previous Version | Text Only | Print | Product List | Glossary On
Versions: 1 2 3 4 5 6 7 8 9 10 11 12 13 14 15 16 17 18 19 20 21 22 23 24 25 26 27 28 29 30 31 32 33 34 35 36 37 38 39 40 41 42 43 44 45 46 47 48 49 50
000
ASUS44 KSJT 031110
RWRSJT
WEST CENTRAL TEXAS REGIONAL WEATHER ROUNDUP
NATIONAL WEATHER SERVICE SAN ANGELO TX
500 AM CST SAT DEC 03 2016

NOTE: "FAIR" INDICATES FEW OR NO CLOUDS BELOW 12,000 FEET WITH NO
SIGNIFICANT WEATHER AND/OR OBSTRUCTIONS TO VISIBILITY.

TXZ049-054-064>066-071>073-076>078-098-099-113-114-127-128-139-140-
154-155-168>170-031200
...LOCATIONS ACROSS WEST CENTRAL TEXAS...

CITY           SKY/WX    TMP DP  RH WIND       PRES   REMARKS
SAN ANGELO     LGT RAIN  47  46  97 NE12      29.97F
ABILENE        LGT RAIN  45  45 100 E9        30.05R FOG
DYESS AFB      LGT RAIN  45  43  93 NE8       30.03R FOG
JUNCTION       NOT AVBL
SWEETWATER     CLOUDY    44  44 100 NE16      30.04R WCI  36
BROWNWOOD      LGT RAIN  46  45  93 E8        30.05R
COLEMAN        LGT RAIN  46  45  96 E13       30.03R WCI  40
SONORA         CLOUDY    48  48 100 NE8       29.96F
OZONA          CLOUDY    46  46 100 NE12G18   29.94F
BRADY          NOT AVBL
$$

TEXAS PANHANDLE/OKLAHOMA PANHANDLE

CITY           SKY/WX    TMP DP  RH WIND       PRES   REMARKS
AMARILLO       CLOUDY    33  33 100 N12       30.13S FOG     WCI  24
BORGER         CLOUDY    35  34  96 N10       30.15F FOG     WCI  27
CANADIAN       NOT AVBL
DALHART        CLOUDY    32  31  96 N10       30.15F FOG     WCI  24
DUMAS          NOT AVBL
GUYMON         NOT AVBL
HEREFORD       NOT AVBL
PAMPA          NOT AVBL
PERRYTON       CLOUDY    34  33  96 N8        30.15F WCI  28
$$

SOUTHERN PANHANDLE/SOUTH PLAINS/ROLLING PLAINS

CITY           SKY/WX    TMP DP  RH WIND       PRES   REMARKS
LUBBOCK        LGT RAIN  41  39  93 E10       30.06F FOG     WCI  35
SNYDER         RAIN      42  41  96 NE13G22   30.03S WCI  35
CHILDRESS      LGT RAIN  43  42  97 E12       30.13S FOG     WCI  37
SEMINOLE       CLOUDY    41  41 100 CALM      30.02F
$$

PERMIAN BASIN

CITY           SKY/WX    TMP DP  RH WIND       PRES   REMARKS
MIDLAND        CLOUDY    45  42  89 NE13      29.98F WCI  39
ODESSA         CLOUDY    45  42  89 NE18      29.98F WCI  37
WINK           LGT RAIN  44  43  96 N9        29.97S WCI  39
$$

FAR WEST/SOUTHWEST MOUNTAINS/TRANS PECOS

CITY           SKY/WX    TMP DP  RH WIND       PRES   REMARKS
ALPINE         NOT AVBL
DRYDEN           N/A     53  51  93 N13       29.87S
EL PASO        LGT RAIN  44  37  76 N15       29.93R WCI  37
FORT STOCKTON  CLOUDY    44  44 100 NW10      29.97S FOG     WCI  39
GUADALUPE PASS LGT RAIN  33  33 100 NE33      29.94R VSB 1/4 WCI  18
MARFA          CLOUDY    43  41  93 NE14      29.95F WCI  36
PECOS          NOT AVBL
$$

DALLAS/FORT WORTH METROPLEX

CITY           SKY/WX    TMP DP  RH WIND       PRES   REMARKS
DFW AIRPORT    CLOUDY    49  45  86 NE13      30.09F
FTW MEACHAM    LGT RAIN  49  44  83 NE12      30.08F
DAL-EXECUTIVE  CLOUDY    48  46  93 E15       30.07F
GRAND PRAIRIE  CLOUDY    47  47 100 NE12      30.10F
ADDISON        NOT AVBL
MESQUITE       CLOUDY    47  46  97 NE6       30.10F
LANCASTER      NOT AVBL
$$

NORTH CENTRAL TEXAS

CITY           SKY/WX    TMP DP  RH WIND       PRES   REMARKS
SHRMAN/DENISON CLOUDY    48  44  85 E8        30.14F
GAINESVILLE    LGT RAIN  46  43  86 NE6       30.15S
BRIDGEPORT     LGT RAIN  47  46  97 E7        30.12S
DENTON         LGT RAIN  47  45  93 E13       30.11F
WAXAHACHIE     CLOUDY    46  46 100 NE12G17   30.09F FOG
GRANBURY       DRIZZLE   48  45  90 NE8       30.07F
$$

WESTERN NORTH TEXAS

CITY           SKY/WX    TMP DP  RH WIND       PRES   REMARKS
WICHITA FALLS  CLOUDY    46  42  86 NE12      30.13R
VERNON         NOT AVBL
BRECKENRIDGE   DRIZZLE   47  46  97 NE5       30.05F
COMANCHE       RAIN      45  45 100 E7        30.05R
$$

CENTRAL AND SOUTH CENTRAL TEXAS

CITY           SKY/WX    TMP DP  RH WIND       PRES   REMARKS
AUSTIN/BERGSTM TSTM      50  49  96 N15       29.92F FOG
WACO           RAIN      48  48 100 E13       30.04R FOG
HILLSBORO      LGT RAIN  48  47  96 E17       30.03F
TEMPLE         LGT RAIN  48  47  96 NE9       30.02F
KILLEEN-GRAY   RAIN      46  46 100 NE12      30.00R FOG
FORT HOOD      RAIN      46  46 100 NE10      29.98R FOG
GEORGETOWN     CLOUDY    48  45  87 NE9       29.99R
LAGO VISTA     HVY RAIN  48  47  97 NE9G16    29.98S
SAN MARCOS     CLOUDY    54  48  82 NE20      29.93F THUNDER
NEW BRAUNFELS  RAIN      51  49  92 NE14      29.91R FOG
RANDOLPH AFB   LGT RAIN  50  50 100 NE13      29.88F FOG
SAN ANTONIO    NOT AVBL
STINSON        LGT RAIN  54  51  90 N14G21    29.92R
PLEASANTON     NOT AVBL
LA GRANGE      TSTM      51  50  95 NE5       29.92R
GIDDINGS       RAIN      48  47  97 NE10G17   29.94F
$$

EAST TEXAS

CITY           SKY/WX    TMP DP  RH WIND       PRES   REMARKS
PARIS          CLOUDY    46  41  81 E8        30.17F
CLARKSVILLE    NOT AVBL
TYLER          RAIN      48  47  96 E13       30.08F FOG
LONGVIEW       RAIN      48  47  96 NE8G18    30.11F
PALESTINE      RAIN      49  48  99 NE8G16    30.05F
NACOGDOCHES    CLOUDY    50  46  87 E16G22    30.02F
$$

TEXAS HILL COUNTRY AND EDWARDS PLATEAU

CITY           SKY/WX    TMP DP  RH WIND       PRES   REMARKS
LLANO          NOT AVBL
HORSESHOE BAY  NOT AVBL
KERRVILLE      RAIN      49  47  96 N5        29.95R
FREDERICKSBRG  CLOUDY    47  46  95 NE9       29.97S
ROCKSPRINGS    CLOUDY    48  48 100 E12G17    29.92F
HONDO          HVY RAIN  54  53  97 NE15      29.90R FOG
UVALDE         LGT RAIN  55  54  98 CALM      29.92R
DEL RIO        LGT RAIN  57  56  96 E5        29.84F
$$

SOUTHEAST TEXAS

CITY           SKY/WX    TMP DP  RH WIND       PRES   REMARKS
COLLEGE STN    HVY RAIN  49  48  97 E10G17    29.97S FOG
CALDWELL       NOT AVBL
CROCKETT       LGT RAIN  48  46  93 E14G21    30.03F
BRENHAM        TSTM      50  49  97 NE8       29.93F
HUNTSVILLE     HVY RAIN  49  46  90 E9        29.96F FOG
CONROE         RAIN      49  47  93 NE10G18   29.94F FOG
HOUSTON BUSH   CLOUDY    50  48  93 E14       29.92F THUNDER FOG
HOUSTON HOBBY  CLOUDY    54  53  97 NE17G23   29.89F
PERLAND        LGT RAIN  57  54  89 NE8       29.91F
WHARTON        PTSUNNY   54  54  99 NE8       29.88S
$$

THE UPPER TEXAS COAST

CITY           SKY/WX    TMP DP  RH WIND       PRES   REMARKS
ORANGE         RAIN     N/A N/A N/A E16       30.00S
PORT ARTHUR    HVY RAIN  53  51  93 E18G25    29.95F FOG
GALVESTON      CLOUDY    66  64  93 NE14      29.88F
ANGLETON       CLOUDY    61  59  93 NE10      29.86F
BAY CITY       CLOUDY    60  60 100 NE7       29.85F
$$

TEXAS COASTAL BEND, RIO GRANDE PLAINS DEEP SOUTH TEXAS

CITY           SKY/WX    TMP DP  RH WIND       PRES   REMARKS
VICTORIA       NOT AVBL
BEEVILLE       CLOUDY    52  52 100 NE9       29.85F
ROCKPORT         N/A    N/A N/A N/A MISG      29.85F
PORT ARANSAS   NOT AVBL
PORT LAVACA    NOT AVBL
CORPUS CHRISTI NOT AVBL
KINGSVILLE NAS CLOUDY    67  65  93 NE5       29.83R
COTULLA        LGT RAIN  57  54  89 N13       29.90  FOG
LAREDO         LGT RAIN  67  66  97 NE8       29.82F FOG
BROWNSVILLE    CLOUDY    75  72  90 SE9       29.82
PORT ISABEL    CLOUDY    75  73  93 SE9       29.82  FOG
HEBBRONVILLE   RAIN      71  70  97 S6        29.83R
MCALLEN        MOCLDY    77  71  82 S10       29.81S
WESLACO        CLOUDY    74  71  90 S20       29.79S
FALFURRIAS     NOT AVBL
EDINBURG       PTSUNNY   76  70  81 S6        29.81S
$$




USA.gov is the U.S. government's official web portal to all federal, state and local government web resources and services.